WA9LT Weather Reports


time (UTC)temp
C
wind
direction
speed
KPH
gust
KPH
rain 1hr
cm
rain 24hr
cm
rain mn
cm
humidity
%
barometer
mb
20260504140546 18 179 8.0 11.3 0.00 0.00 0.00 69 1016.3
20260504130547 14 208 4.8 8.0 0.00 0.00 0.00 69
20260504110547 8 127 0.0 0.0 0.00 0.00 0.00 69
20260504100547 9 193 0.0 0.0 0.00 0.00 0.00 69
20260504080547 11 232 1.6 6.4 0.00 0.00 0.00 69
20260504050547 13 162 0.0 0.0 0.00 0.00 0.00 69
20260504045154 13 162 0.0 0.0 0.00 0.00 0.00 69
20260504045046 13 162 0.0 0.0 0.00 0.00 0.00 69
20260504043547 13 162 0.0 0.0 0.00 0.00 0.00 69
20260504042320 14 254 0.0 0.0 0.00 0.00 0.00 69
20260504042046 14 254 0.0 0.0 0.00 0.00 0.00 69
20260504040547 15 199 0.0 3.2 0.00 0.00 0.00 69
20260504035307 15 260 0.0 3.2 0.00 0.00 0.00 69
20260504035047 15 260 0.0 3.2 0.00 0.00 0.00 69
20260504033547 16 216 3.2 6.4 0.00 0.00 0.00 69
20260504032046 16 215 4.8 8.0 0.00 0.00 0.00 69
20260504030547 16 215 3.2 16.1 0.00 0.00 0.00 69
20260504025307 17 229 3.2 4.8 0.00 0.00 0.00 69
20260504025046 17 229 3.2 4.8 0.00 0.00 0.00 69
20260504023547 17 239 6.4 6.4 0.00 0.00 0.00 69
20260504022047 17 203 4.8 8.0 0.00 0.00 0.00 69
20260504020545 17 219 4.8 11.3 0.00 0.00 0.00 69 1016.3
20260504015253 18 216 4.8 12.9 0.00 0.00 0.00 69
20260504015045 18 216 4.8 12.9 0.00 0.00 0.00 69